SCP
0 0 0 0 0 0 0 0 0 0 0 0 0 0 0 0 0 0 0 0 0 0 0 0 0 0 0 0 0 0 0 0 0 0 0 0 0 0 0 0 0 0 0 0
0 0 0 0 0 0 0 0 0 0 0 0 0 0 0 0 0 0 0 0 0 0 0 0 0 0 0 0 0 0 0 0 0 0 0 0 0 0 0 0 0 0 0 0
0 0 0 0 0 0 0 0 0 0 0 0 0 0 0 0 0 0 0 0 0 0 0 0 0 0 0 0 0 0 0 0 0 0 0 0 0 0 0 0 0 0 0 0
0 0 0 0 0 0 0 0 0 0 0 0 0 0 0 0 0 0 0 0 0 0 0 0 -0 0 0 0 0 -0 0 0 0 0 0 0 0 0 0 0 0 0 0 0
0 0 0 0 0 0 0 0 0 0 0 0 0 0 0 0 0 0 0 0 0 0 0 0 0 0 0 0 0 -0 -0 -0 0 0 0 0 0 0 0 0 0 0 0 0
0 0 0 0 0 0 0 0 0 0 0 0 0 0 0 0 0 0 0 0 0 0 0 0 0 0 0 0 0 0 -0 -0 -0 -0 0 0 0 0 0 0 0 0 0 0
0 0 0 0 0 0 0 0 0 0 0 0 0 0 0 0 0 0 0 0 0 0 0 0 0 0 -0 -0 -0 0 0 0 -0 -0 0 0 0 0 0 0 0 0 0 0
0 0 0 0 0 0 0 0 0 0 0 0 0 0 0 0 0 0 0 0 0 0 0 0 0 0 -0 -0 -0 0 0 0 0 0 0 0 0 0 0 0 0 0 0 0
0 0 0 0 0 0 0 0 0 0 0 0 0 0 0 0 0 0 0 0 0 0 0 0 0 0 -0 -0 -0 0 0 0 0 0 0 0 0 0 0 0 0 0 0 0
0 0 0 0 0 0 0 0 0 0 0 0 0 0 0 0 0 0 0 0 0 0 0 0 0 0 0 0 0 0 0 0 0 0 0 0 0 0 0 0 0 0 0 0
0 0 0 0 0 0 0 0 0 0 0 0 0 0 0 0 0 0 0 0 0 0 0 0 0 0 0 0 0 0 0 0 0 0 0 0 0 0 0 0 0 0 0 0
0 0 0 0 0 0 0 0 0 0 0 0 0 0 0 0 0 0 0 0 0 0 0 0 0 0 0 0 0 0 0 0 0 0 0 0 0 0 0 0 0 0 0 0
0 0 0 0 0 0 0 0 0 0 0 0 0 0 0 0 0 0 0 0 0 0 0 0 0 0 0 0 0 0 0 0 0 0 0 0 0 0 0 0 0 0 0 0
0 0 0 0 0 0 0 0 0 0 0 -0 0 0 0 0 0 0 0 0 0 0 0 0 0 0 0 0 0 0 0 0 0 0 0 0 0 0 0 0 0 0 0 0
0 0 0 0 0 0 0 0 0 -0 -0 -0 -0 -0 0 0 0 0 0 0 0 0 0 0 0 0 0 0 0 0 0 0 0 0 0 0 0 0 0 0 0 0 0 0
0 0 0 0 0 0 0 0 0 -0 -0 -0 -0 -0 0 0 0 0 0 0 0 0 0 0 0 0 0 0 0 0 0 0 0 0 0 0 0 0 0 0 0 0 0 0
0 0 0 0 0 0 0 0 0 -0 -0 -0 -0 -0 -0 0 0 0 -0 0 0 0 0 0 0 0 0 0 0 0 0 0 0 0 0 0 0 0 0 0 0 0 0 0
0 0 0 0 0 0 0 0 0 -0 -0 -0 -0 -0 -0 0 0 -0 -0 0 0 0 0 0 0 0 0 0 0 0 0 0 0 0 0 0 0 0 0 0 0 0 0 0
0 0 0 0 0 0 0 0 0 -0 -0 -0 -0 -0 0 0 0 0 0 0 0 0 0 0 0 0 0 0 0 0 0 0 0 0 0 0 0 0 0 0 0 0 0 0
0 0 0 0 0 0 0 0 0 0 -0 -0 -0 0 0 0 0 0 0 0 0 0 0 0 0 0 0 0 0 0 0 0 0 0 0 0 0 0 0 0 0 0 0 0
0 0 0 0 0 0 0 0 0 0 -0 -0 -0 -0 0 0 0 0 0 0 0 0 0 0 0 0 0 0 0 0 0 0 0 0 0 0 0 0 0 0 0 0 0 0
0 0 0 0 0 0 0 0 0 0 0 -0 -0 -0 0 0 0 0 0 0 0 0 0 0 0 0 0 0 0 0 0 0 0 0 0 0 0 0 0 0 0 0 0 0
0 0 0 0 0 0 0 0 0 0 0 0 0 0 0 0 0 0 0 0 0 0 0 0 0 0 0 0 0 0 0 0 0 0 0 0 0 0 0 0 0 0 0 0
0 -0 0 0 0 0 0 0 0 0 0 0 0 0 0 0 0 0 0 0 0 0 0 0 0 0 0 0 0 0 0 0 0 0 0 0 0 0 0 0 0 0 0 0
0 -0 0 0 0 0 0 0 0 0 0 0 0 0 0 0 0 0 0 0 0 0 0 0 0 0 0 0 0 0 0 0 0 0 0 0 0 0 0 0 0 0 0 0
0 0 0 0 0 0 0 0 0 0 0 0 0 0 0 0 0 0 0 0 0 0 0 0 0 0 0 0 0 0 0 0 0 0 0 0 0 0 0 0 0 0 0 0
0 0 0 0 0 0 0 0 0 0 0 0 0 0 0 0 0 0 0 0 0 0 0 0 0 0 0 0 0 0 0 0 0 0 0 0 0 0 0 0 0 0 0 0
Wind_Speed
9 9 7 9 11 9 11 10 10 10 9 13 9 8 7 6 6 5 5 5 4 4 3 2 2 1 1 1 2 1 1 1 1 1 2 2 2 2 2 2 2 1 2 2
6 6 7 10 13 12 12 12 13 12 15 12 7 5 5 6 6 6 7 6 6 5 4 3 3 2 1 1 1 1 1 0 1 1 1 2 2 2 2 2 2 2 2 2
6 6 6 10 11 11 8 8 10 14 14 6 4 6 7 7 7 8 7 7 6 6 5 5 4 3 2 2 1 0 0 1 1 1 1 1 2 2 2 2 2 2 2 2
4 5 7 9 3 6 8 9 11 10 8 6 8 7 6 7 8 8 7 6 6 5 5 4 3 3 2 1 0 0 0 1 1 0 1 1 2 2 2 1 1 2 2 2
2 4 11 10 5 4 5 8 9 12 10 7 4 2 5 6 7 8 8 6 6 5 5 4 4 3 2 1 1 1 0 1 1 0 0 1 1 1 1 1 2 1 2 2
3 4 9 7 2 1 1 7 6 7 8 6 4 3 7 5 5 5 5 4 4 4 4 4 4 4 3 2 2 2 2 1 1 0 1 0 0 0 1 1 1 2 2 2
7 7 13 8 2 3 3 7 3 4 5 5 8 8 4 2 4 4 4 4 4 4 4 5 4 5 4 3 4 4 2 1 1 1 1 1 0 0 1 1 2 2 2 2
7 8 14 5 5 7 9 4 2 3 4 6 7 5 4 4 4 5 4 4 5 5 5 4 5 6 5 6 5 3 2 2 1 1 1 1 1 1 1 1 2 1 1 2
12 13 7 5 9 7 4 5 5 5 5 6 6 6 6 5 5 5 5 5 5 5 5 4 5 6 7 6 4 3 3 2 2 1 1 1 2 1 1 1 1 0 0 1
8 13 10 9 9 8 7 8 8 7 6 6 7 7 7 6 5 5 5 5 5 5 5 6 6 6 7 5 5 5 4 4 3 2 2 1 1 1 1 1 1 1 1 1
10 11 8 9 9 10 9 8 7 7 6 7 7 7 7 6 6 6 6 5 5 6 7 7 6 6 6 5 5 5 5 4 3 3 3 2 2 2 2 2 3 2 2 1
12 9 7 8 6 6 7 8 9 8 7 7 7 8 7 7 6 6 6 5 5 6 7 6 6 6 6 6 6 6 5 5 4 3 3 2 2 1 2 2 3 3 2 2
14 10 9 11 9 7 8 9 8 8 9 8 7 7 7 6 6 6 6 6 7 8 7 6 6 6 6 6 7 7 6 5 4 4 4 3 3 3 2 1 2 3 3 3
13 11 12 12 11 9 9 9 8 7 7 7 6 6 6 6 5 6 7 8 7 6 6 6 7 7 6 6 7 7 6 6 5 4 4 4 4 3 3 3 2 2 3 4
13 13 14 11 9 8 7 6 6 7 7 6 6 6 6 7 7 8 7 5 5 6 6 6 7 7 5 6 7 7 6 4 4 4 4 4 3 3 3 3 3 2 1 2
9 10 11 11 12 11 8 8 9 9 8 7 6 7 7 7 6 6 5 5 6 7 7 7 7 6 5 6 6 5 5 7 6 4 4 4 4 4 3 3 3 3 3 2
10 12 10 10 11 11 10 10 9 9 7 8 8 7 5 5 5 6 6 6 6 7 6 7 7 5 5 6 6 5 4 5 7 5 4 4 4 4 4 4 3 3 3 3
13 14 12 11 10 10 9 8 8 8 8 8 6 5 6 7 7 7 6 4 4 4 5 6 5 4 5 6 5 4 4 4 4 4 4 4 4 4 4 4 4 4 3 3
10 11 10 10 10 8 7 7 7 7 7 5 6 7 7 7 6 5 4 4 5 6 6 5 7 5 5 6 6 4 4 4 4 4 4 6 5 4 4 4 4 3 3 3
7 7 7 7 7 6 6 6 6 5 5 5 5 5 6 6 5 5 5 6 6 5 4 5 5 5 5 6 7 4 5 5 5 4 4 4 4 4 4 4 4 4 3 3
7 7 6 6 6 6 6 5 5 5 5 5 6 7 6 5 5 4 4 5 5 4 4 6 4 4 4 5 7 4 5 5 5 5 5 4 4 4 4 4 4 4 3 3
5 5 6 5 5 5 5 4 4 5 4 5 6 5 5 5 5 5 6 6 4 5 4 3 4 5 6 6 4 5 5 5 4 4 4 4 4 4 4 4 4 3 3 3
5 5 5 6 5 5 4 4 4 4 5 6 6 6 6 5 4 5 5 4 4 6 4 4 6 8 8 5 4 5 5 5 4 4 4 4 4 4 4 4 4 4 3 3
6 5 5 5 4 4 5 5 4 4 5 5 6 6 5 4 4 5 4 4 6 6 4 6 8 9 8 4 4 4 4 4 4 4 4 4 4 4 4 4 4 3 4 4
6 6 5 5 5 5 6 5 3 4 4 4 5 5 5 4 5 4 3 4 6 6 4 6 9 9 5 4 4 4 4 4 4 4 4 4 4 4 4 4 4 4 4 4
6 6 6 6 6 5 4 3 4 4 4 4 4 4 3 3 4 3 3 4 5 6 4 3 4 6 4 4 4 4 4 4 4 4 4 4 4 4 4 4 5 4 4 4
6 5 5 5 5 5 4 4 5 5 5 5 5 4 4 3 3 4 4 4 4 4 3 3 4 4 4 4 4 4 4 4 4 4 4 4 4 4 4 5 4 4 3 3
Wind_Direction
253 257 252 247 247 228 215 214 223 243 248 260 252 239 238 236 233 233 236 233 230 231 238 250 268 290 306 322 335 4 45 48 20 11 27 34 31 25 24 30 31 27 42 32
282 267 264 262 250 233 228 224 233 252 266 258 253 233 233 231 223 227 232 231 230 224 219 224 234 246 265 288 307 12 69 19 352 29 38 31 20 22 27 27 25 34 37 27
282 306 317 272 240 214 213 213 207 230 244 257 255 239 231 224 220 224 228 226 221 217 213 215 215 213 222 247 275 82 58 353 360 32 41 18 28 41 37 34 39 37 30 34
292 335 262 245 243 200 218 235 218 231 245 236 236 242 235 217 213 223 223 219 215 210 209 210 203 195 197 185 158 153 22 346 349 48 49 29 45 51 30 30 47 42 29 24
262 285 279 287 260 199 207 264 228 228 241 245 245 284 274 229 211 214 213 208 207 204 199 193 193 187 166 162 159 156 254 299 311 330 103 55 35 17 20 39 39 33 33 39
218 251 256 256 256 178 104 280 250 214 228 224 158 233 261 225 207 214 209 197 196 190 182 188 195 172 165 182 185 213 226 241 266 209 144 150 255 358 30 59 47 43 37 32
221 246 266 259 240 129 196 251 259 204 217 199 201 222 245 216 208 206 204 198 185 180 190 203 189 168 182 197 216 222 208 195 185 180 172 171 129 61 73 73 63 51 37 17
194 221 254 233 157 194 226 265 256 239 224 215 228 242 237 227 221 210 204 200 188 187 206 206 185 179 195 215 222 202 182 181 194 195 180 140 134 108 95 99 87 54 32 8
202 222 239 207 211 230 229 243 245 236 236 222 226 234 231 231 226 220 212 206 197 195 208 212 196 190 204 220 200 181 178 192 203 197 188 163 153 151 114 110 123 151 87 332
249 257 254 253 252 257 244 240 244 237 234 220 225 231 231 231 228 223 218 211 202 196 208 221 211 205 213 208 183 178 189 199 196 190 195 185 170 169 166 181 192 206 219 269
253 266 282 266 244 248 251 249 253 247 233 225 225 233 229 230 228 224 221 215 202 204 213 223 216 213 212 198 179 185 194 198 196 195 191 191 193 201 202 211 199 198 212 217
242 234 229 254 248 244 246 249 243 241 244 235 221 230 230 231 228 221 221 214 211 214 219 222 214 216 211 194 185 187 197 202 201 197 194 189 190 236 249 228 238 235 229 225
246 255 248 259 263 251 247 247 240 230 232 238 233 225 226 232 229 221 220 215 216 218 219 217 213 217 211 193 189 194 201 202 198 195 193 193 192 197 224 268 263 255 250 254
248 256 262 259 258 255 250 249 242 239 236 235 234 229 225 229 230 224 224 222 220 218 217 214 213 219 209 192 192 200 203 204 198 197 196 195 197 200 202 205 231 263 269 267
246 240 249 262 263 258 251 243 239 242 242 242 234 229 224 225 230 231 230 221 213 215 220 215 216 222 200 190 194 199 199 200 197 193 193 195 193 193 199 209 219 231 252 272
258 256 254 257 259 258 250 238 237 243 240 238 235 233 231 229 234 236 227 207 204 219 222 218 222 218 192 190 195 198 204 204 193 189 190 192 192 194 200 208 215 220 228 234
259 264 258 257 257 255 247 239 237 241 238 234 234 234 231 231 238 238 231 219 218 224 222 218 223 209 192 191 191 195 196 200 197 192 194 196 196 199 202 205 214 222 229 230
243 250 253 253 256 257 255 245 239 237 234 233 229 222 220 221 229 234 230 224 228 238 232 221 212 197 194 194 191 187 186 190 191 194 193 197 200 199 200 205 213 223 232 237
253 255 258 255 252 249 251 248 242 237 234 221 214 221 225 227 228 228 220 213 219 235 237 213 201 194 197 199 188 183 183 188 192 192 189 201 202 196 200 207 215 219 220 221
272 270 267 265 259 248 250 250 242 238 227 212 214 224 232 234 225 218 215 225 227 224 213 200 196 197 198 196 187 180 184 188 191 191 189 192 196 200 203 209 214 216 218 219
286 283 277 270 268 261 251 244 234 235 228 210 213 224 230 233 219 208 212 241 246 218 204 199 194 196 193 190 186 180 184 188 191 192 191 194 198 202 205 209 213 215 217 218
286 285 283 276 270 272 265 245 229 227 224 222 224 223 224 227 220 219 223 230 232 206 195 196 196 199 195 188 181 181 185 188 190 189 192 195 198 203 207 208 212 214 214 214
281 279 279 274 266 268 274 256 231 221 222 223 221 218 219 220 208 210 238 229 208 204 197 202 205 203 198 184 179 184 187 190 192 193 196 197 200 202 204 206 208 210 211 214
278 276 274 274 270 265 265 260 243 235 232 233 229 222 215 217 229 227 227 216 206 205 203 205 206 205 196 181 181 186 189 192 192 193 193 195 197 197 200 203 206 209 210 214
267 268 267 260 255 254 254 254 251 247 240 243 242 233 220 211 220 227 209 210 210 206 204 208 208 205 192 180 186 191 192 194 192 187 190 192 195 196 199 202 204 207 210 215
255 257 256 249 246 249 245 233 236 238 230 241 248 234 221 214 214 216 209 207 208 204 199 199 198 194 185 186 190 190 190 194 198 197 194 196 196 196 199 202 205 209 211 216
252 251 255 261 255 241 234 229 234 238 228 227 239 232 214 204 201 205 204 202 202 201 198 196 191 186 184 185 185 187 188 188 188 190 191 193 194 197 199 201 205 207 209 214